Location: ???????
(38.2057°N, 23.8371°E)
Time: 19:50:18
(UTC+00:00)

Daily predictions for brighter satellites

Satellite Brightness Start Highest point End
(mag) Time Altitude Azimuth Time Altitude Azimuth Time Altitude Azimuth
Cosmos 2263 Rocket 3.4 17:42:01 10° SW 17:47:22 48° WNW 17:52:46 10° NNE
Cosmos 1842 Rocket 3.7 17:45:08 10° S 17:49:30 56° E 17:53:54 10° NNE
Cosmos 1408 Rocket 3.8 17:45:43 10° N 17:50:00 49° E 17:54:18 10° SSE
Cosmos 1943 3.2 17:46:40 10° NNW 17:52:20 78° ENE 17:57:59 10° SSE
Cosmos 1844 Rocket 3.2 17:47:25 10° SSE 17:52:24 35° ESE 17:57:25 10° NE
BREEZE-M R/B 2.0 17:49:03 10° SW 17:52:38 75° SE 17:55:07 10° ENE
Cosmos 921 Rocket 3.1 17:49:10 10° N 17:53:23 58° ENE 17:57:31 10° SSE
CSL-04 Debris 4.4 17:48:47 10° S 17:54:13 76° WSW 17:59:40 10° NNW
Meteor 2-15 4.4 17:48:43 10° S 17:54:44 75° E 18:00:48 10° N
ASTRO E2 3.8 17:52:36 10° WSW 17:56:04 29° S 17:59:32 10° SE
USA 229 DEB 4.3 17:49:51 10° NW 17:57:16 69° WSW 18:05:00 10° SSE
USA 229 4.3 17:49:55 10° NW 17:57:21 70° WSW 18:05:06 10° SSE
Helios 1A Rocket 3.0 17:53:15 10° SSE 17:57:23 88° ENE 18:01:32 10° NNW
Cosmos 1606 3.5 17:54:23 10° SSE 17:57:42 31° E 18:01:03 10° NNE
GENESIS II 4.4 17:54:04 10° NW 17:57:56 69° WSW 18:01:45 10° SSE
Cosmos 1814 Rocket 4.1 17:54:23 10° NNW 17:59:34 64° ENE 18:04:40 10° SSE
SL-4 R/B 3.4 18:01:40 10° NW 18:05:38 33° NNE 18:09:50 10° E
Cosmos 540 Rocket 3.9 18:02:36 10° NNW 18:07:39 62° WSW 18:12:39 10° S
CSL-04 Rocket 4.3 18:05:40 10° S 18:10:50 57° W 18:16:06 10° NNW
X-37B 2.8 18:08:25 10° WNW 18:11:05 24° N 18:13:45 10° NE
Cosmos 1844 4.1 18:06:56 10° S 18:12:19 43° ESE 18:17:40 10° NE
Cosmos 968 Rocket 3.5 18:09:56 10° S 18:15:06 62° ESE 18:20:17 10° NNE
Resurs 1-3 4.1 18:13:25 11° SE 18:17:20 42° ENE 18:21:29 10° N
CZ-4 R/B 4.3 18:15:06 10° SW 18:17:29 15° W 18:19:51 10° WNW
ATLAS 5 CENTAUR R/B 4.0 18:15:10 10° N 18:19:19 20° NE 18:23:55 10° E
Cosmos 1743 Rocket 3.6 18:17:31 10° N 18:21:49 58° E 18:25:57 11° SSE
ERS-2 3.6 18:18:51 10° N 18:22:17 40° WNW 18:25:41 10° SW
Cosmos 1486 Rocket 4.1 18:17:07 10° S 18:22:18 57° ESE 18:27:32 10° NNE
S3M 4.3 18:18:21 10° SSE 18:24:23 47° E 18:30:25 10° NNE
Cosmos 2221 3.7 18:27:34 10° SSW 18:31:39 44° W 18:35:48 10° N
Cosmos 1500 Rocket 3.5 18:29:26 10° N 18:33:50 82° E 18:37:55 12° S
TIMED 4.5 18:34:46 10° NNW 18:39:09 72° ENE 18:42:02 21° SSE
USA 186 3.7 18:37:04 10° SSW 18:39:12 21° W 18:41:14 10° NW
Cosmos 1553 Rocket 4.0 18:36:55 10° S 18:43:01 83° W 18:49:15 10° N
GPS 2-04 Rocket1 4.1 18:39:58 10° SSW 18:42:44 20° SSE 18:42:44 20° SSE
Cosmos 1933 3.6 18:41:26 20° SSE 18:43:53 45° E 18:47:45 10° NNE
FALCON 9 DEB 2.8 18:44:06 10° NW 18:47:07 71° NE 18:48:00 41° ESE
Cosmos 1242 Rocket 2.8 18:50:09 32° SE 18:51:17 45° E 18:54:44 10° NNE
OBJECT-B 2.8 18:49:48 10° SSW 18:52:36 27° W 18:55:25 10° NW
FALCON 9 DEB 2.7 18:50:22 10° NW 18:53:24 89° WSW 18:54:03 51° SE
Cosmos 1437 Rocket 3.1 18:50:01 10° SSW 18:53:47 63° W 18:57:40 10° N
Resurs 01 Rocket 1.7 18:52:09 27° SSE 18:54:29 63° ENE 18:58:53 10° N
DELTA 2 R/B (1) 3.6 18:52:03 10° W 18:57:39 84° N 19:01:06 24° E
CZ-4C R/B 4.3 18:55:00 10° NNW 19:00:51 25° NE 19:06:07 14° E
Intercosmos 24 3.7 18:57:23 12° S 19:01:18 86° W 19:04:53 10° N
FALCON 9 DEB 2.6 18:59:06 10° NW 19:02:09 83° NE 19:02:29 67° ESE
Meteor 1-20 Rocket 4.2 18:56:41 10° N 19:02:15 62° E 19:05:02 29° SSE
Sich 1 2.9 18:59:58 10° N 19:04:18 71° E 19:06:02 35° SSE
Cosmos 1782 3.1 19:07:43 44° ESE 19:08:11 46° E 19:12:02 10° NNE
ERS-1 Rocket 4.2 19:10:53 23° E 19:11:50 24° ENE 19:15:48 10° NNE
Cosmos 1503 Rocket 3.9 19:07:56 10° SSW 19:13:06 86° WNW 19:18:19 10° NNE
SPOT 5 4.2 19:13:39 24° E 19:14:35 25° ENE 19:18:44 10° NNE
Cosmos 1777 Rocket 4.4 19:18:30 39° ESE 19:18:51 39° ESE 19:23:40 10° NE
Cosmos 1151 Rocket 2.9 19:21:15 49° SSE 19:22:18 72° E 19:26:40 10° NNE
Cosmos 2278 Rocket 2.9 19:23:59 34° E 19:23:59 34° E 19:28:43 10° NE
Terra 3.4 19:23:30 20° ENE 19:23:46 20° ENE 19:27:14 10° NNE
Ariane Rocket 4.4 19:22:18 11° SSW 19:26:32 33° W 19:31:06 10° NNW
USA 290 2.6 19:27:25 10° NNW 19:30:10 61° NNW 19:30:10 61° NNW
Cosmos 1602 3.5 19:27:16 10° N 19:31:08 79° E 19:31:09 79° E
Meteor 1-25 Rocket 4.4 19:26:05 10° NNW 19:31:56 77° W 19:34:41 33° S
CZ-2C R/B 4.2 19:32:13 10° N 19:36:38 59° WNW 19:39:19 23° SW
SPOT 1/Viking Rocket 3.5 19:36:09 49° SSE 19:37:38 89° ENE 19:42:51 10° NNW
MetOp-B 4.3 19:36:53 39° S 19:38:54 71° WSW 19:44:16 10° NNW
Cosmos 1515 Rocket 4.2 19:40:30 43° ENE 19:40:30 43° ENE 19:44:00 10° NNE
Cosmos 2084 3.3 19:41:37 73° SW 19:41:59 84° NW 19:46:13 10° NNE
ARIANE 5 R/B 2.5 19:43:07 69° ENE 19:43:08 69° ENE 19:47:27 10° N
SL-4 R/B 2.7 19:41:03 10° WNW 19:45:26 50° SW 19:45:34 49° SW
X-37B 2.5 19:45:27 10° NW 19:47:53 28° N 19:47:53 28° N
Cosmos 1633 Rocket 3.2 19:49:41 10° NNW 19:54:03 66° W 19:54:17 64° WSW
Milstar 3 3.8 19:42:14 10° WSW 19:54:44 42° S 19:56:06 40° SSE
Cosmos 1812 3.7 19:56:30 41° NNE 19:56:30 41° NNE 19:59:07 10° N
Cosmos 2184 Rocket 4.4 19:50:09 10° N 19:56:04 44° ENE 19:56:32 43° E
Cosmos 1709 Rocket 4.2 19:51:29 10° NNW 19:57:32 63° W 19:59:47 38° SSW
Meteor 1-5 Rocket 4.1 19:54:35 10° N 19:59:55 59° E 19:59:56 59° E
Cosmos 1328 Rocket 4.2 19:59:49 45° WSW 20:00:37 51° W 20:04:57 10° N
NOSS 3-3 (A) 4.4 19:56:04 10° SW 20:01:36 58° NW 20:07:53 10° NNE
NOSS 3-3 (C) 4.3 19:56:09 10° SW 20:01:42 59° NW 20:07:59 10° NNE
Cosmos 1470 Rocket 3.7 19:58:46 10° N 20:02:47 71° N 20:02:47 71° N
Cosmos 2074 Rocket 4.2 19:58:01 10° N 20:04:10 53° E 20:04:41 52° E
ATLAS 5 CENTAUR R/B 2.4 19:58:36 10° NW 20:04:30 83° WSW 20:05:41 62° SSE
CARTOSAT-1 3.8 20:07:01 64° WNW 20:07:01 64° WNW 20:10:57 10° NNW
Nadezhda 1 Rocket 4.5 20:07:16 44° E 20:07:16 44° E 20:12:58 10° NNE
Cosmos 1833 Rocket 2.9 20:08:23 10° NNW 20:13:57 56° ENE 20:14:00 56° ENE
Meteor 1-14 Rocket 4.4 20:09:36 10° NNW 20:15:26 69° W 20:16:14 60° SW
Cosmos 1933 Rocket 4.3 20:13:28 10° N 20:16:40 48° N 20:16:40 48° N
Cosmos 1666 4.4 20:15:27 10° N 20:17:21 28° N 20:17:21 28° N
Iridium 4 Rocket 3.6 20:22:02 79° SW 20:22:20 82° W 20:28:13 10° N
Cosmos 1538 Rocket 4.3 20:18:44 10° NNW 20:23:35 61° NE 20:23:35 61° NE
Resurs 01 Rocket 4.4 20:30:26 10° WSW 20:31:21 11° W 20:32:16 10° WNW
Meteor 1-27 Rocket 4.0 20:36:14 61° NE 20:36:14 61° NE 20:41:17 10° NNE
SJ 16-02 2.6 20:38:19 40° N 20:38:19 40° N 20:41:20 10° N
Cosmos 2228 Rocket 4.4 20:40:06 36° N 20:40:06 36° N 20:42:47 10° N
COSMOS 2406 3.3 20:38:37 10° NNW 20:43:43 71° NW 20:43:43 71° NW
Cosmos 2082 Rocket 2.7 20:41:41 10° NNW 20:46:29 49° NE 20:46:29 49° NE
CZ-4C R/B 2.9 20:42:40 10° NNW 20:50:16 88° WSW 20:51:18 72° SSE
ERS-1 Rocket 4.1 20:50:52 35° W 20:50:52 35° W 20:55:01 10° NNW
SPOT 5 4.2 20:52:52 35° W 20:52:52 35° W 20:57:07 10° NNW
Terra 3.2 21:02:22 33° WNW 21:02:22 33° WNW 21:05:40 10° NNW
Meteor 1-11 Rocket 4.1 20:57:24 10° NNW 21:02:44 66° NW 21:02:44 66° NW
Cosmos 2278 Rocket 3.7 21:05:44 25° W 21:07:43 32° WNW 21:12:45 10° N
Cosmos 2369 Rocket 4.2 21:21:41 17° ENE 21:21:41 17° ENE 21:23:19 10° NE
SL-8 Rocket 4.4 21:21:41 10° N 21:26:56 55° NE 21:26:56 55° NE
Cosmos 1943 Rocket 3.4 21:30:26 35° NE 21:30:26 35° NE 21:33:40 10° NNE
NOSS 3-4 (A) 4.0 21:40:36 10° NW 21:47:02 67° W 21:47:02 67° W
NOSS 3-4 (C) 4.0 21:40:43 10° NW 21:47:09 67° W 21:47:09 67° W
USA 215 4.2 21:55:03 34° ENE 21:56:58 42° NNE 22:03:02 10° NW
SeaSat 1 4.3 21:56:32 10° NNE 21:58:32 24° NE 21:58:32 24° NE
ATLAS 2AS CENTAUR R/B 2.9 21:54:12 10° NNW 22:00:32 69° NNW 22:00:32 69° NNW
Cosmos 2082 Rocket 4.4 22:26:55 10° NW 22:28:19 15° WNW 22:28:19 15° WNW
Cosmos 2369 Rocket 3.4 23:03:27 35° NW 23:03:27 35° NW 23:07:41 10° N
Lacrosse 5 4.0 23:11:02 19° ENE 23:11:02 19° ENE 23:12:40 10° ENE
Cosmos 1943 Rocket 4.2 23:11:54 17° WNW 23:12:19 18° NW 23:16:01 10° NNW
ATLAS CENTAUR R/B 4.0 23:33:01 16° N 23:33:01 16° N 23:33:59 10° NNE
Cosmos 1605 Rocket 4.1 23:26:22 10° N 23:32:11 72° NE 23:32:11 72° NE
SeaSat 1 4.5 23:35:07 10° N 23:38:19 19° NW 23:38:19 19° NW
USA 215 4.1 23:42:21 36° WNW 23:42:21 36° WNW 23:46:14 10° NW
CZ-2D R/B 2.4 23:49:09 10° NNE 23:53:55 63° ENE 23:53:55 63° ENE
